Location: Clyde
(45.1830°S, 169.3170°E)
Time: 19:51:45
(UTC+13:00)

Cosmos 968 Rocket - Pass Details

Date: 24 January 2019
Orbit: 742 x 770 km, 74.0° (Epoch: 20 February)

Event Time Altitude Azimuth Distance (km) Brightness Sun altitude
Exits shadow 23:08:49 25° 41° (NE) 1,524 4.4 -15.4°
Maximum altitude 23:10:46 32° 79° (E) 1,295 4.3 -15.6°
Drops below altitude 10° 23:15:25 10° 141° (SE) 2,328 6.1 -16.1°
Sets 23:18:01 0° 150° (SSE) 3,267 7.1 -16.4°
